Worthington, MN

2:56 AM CST on December 06, 2019 (GMT -0600)
Worthington Municipal

Weather History for KOTG - October, 2019

Change the Weather History Date:

Saturday, October 5, 2019

  Actual Average Record
Temperature  
Mean Temperature 53 °F -  
Max Temperature 60 °F 62 °F 84 °F (1987)
Min Temperature 46 °F 41 °F 23 °F (1988)
Degree Days  
Heating Degree Days 12    
Growing Degree Days 3 (Base 50)    
Moisture  
Dew Point 47 °F    
Average Humidity 87    
Maximum Humidity 100    
Minimum Humidity 64    
Precipitation  
Precipitation 1.36 in - - ()
Sea Level Pressure  
Sea Level Pressure 29.88 in    
Wind  
Wind Speed 15 mph (SSW)    
Max Wind Speed 29 mph    
Max Gust Speed 40 mph    
Visibility 8 miles    
Events Rain , Thunderstorm    
Averages and records for this station are not official NWS values.
T = Trace of Precipitation, MM = Missing Value Source: NWS Daily Summary

Daily Weather History Graph

Daily Weather History Graph

Search for Another Location

Airport or City:

Astronomy

Oct. 05, 2019 Rise Set
Actual Time 7:24 AM CDT 6:56 PM CDT
Civil Twilight 6:55 AM CDT 7:25 PM CDT
Nautical Twilight 6:22 AM CDT 7:58 PM CDT
Astronomical Twilight 5:48 AM CDT 8:31 PM CDT
Moon 3:01 PM CDT (10/5) No Moon Set
Length of Visible Light 12h 29m
Length of Day
11h 32m
Waxing Crescent, 50% of the Moon is Illuminated
Oct 5
Waxing Crescent
Oct 13
Full
Oct 21
Last Quarter
Oct 27
New
Nov 4
First Quarter

Hourly Weather History & Observations

Time (CDT) Temp. Windchill Dew Point Humidity Pressure Visibility Wind Dir Wind Speed Gust Speed Precip Events Conditions
12:56 AM 50.0 °F - 46.0 °F 86% 30.04 in 10.0 mi SSE 12.7 mph 24.2 mph 0.02 in Rain Light Rain
1:42 AM 48.2 °F - 46.4 °F 93% 30.00 in 5.0 mi SSE 11.5 mph 19.6 mph 0.15 in Rain , Thunderstorm Heavy Rain
1:56 AM 48.9 °F - 46.9 °F 93% 30.00 in 10.0 mi SSE 17.3 mph 24.2 mph 0.16 in Rain Light Rain
2:04 AM 48.2 °F - 46.4 °F 93% 29.96 in 10.0 mi SE 16.1 mph 21.9 mph 0.00 in Thunderstorm Overcast
2:19 AM 48.2 °F - 46.4 °F 93% 29.96 in 10.0 mi SSE 15.0 mph 27.6 mph 0.00 in Rain Light Rain
2:29 AM 48.2 °F - 46.4 °F 93% 29.98 in 5.0 mi South 15.0 mph 21.9 mph 0.10 in Rain Heavy Rain
2:31 AM 48.2 °F - 46.4 °F 93% 29.98 in 5.0 mi SSE 16.1 mph 23.0 mph 0.10 in Rain , Thunderstorm Thunderstorms and Rain
2:35 AM 48.2 °F - 46.4 °F 93% 29.97 in 5.0 mi SSE 13.8 mph 23.0 mph 0.16 in Rain , Thunderstorm Heavy Thunderstorms and Rain
2:46 AM 48.2 °F - 46.4 °F 93% 29.96 in 3.0 mi SSE 16.1 mph 23.0 mph 0.35 in Rain , Thunderstorm Heavy Thunderstorms and Rain
2:56 AM 48.0 °F - 46.9 °F 96% 29.98 in 3.0 mi SSE 15.0 mph 24.2 mph 0.56 in Rain , Thunderstorm Light Thunderstorms and Rain
3:10 AM 48.2 °F - 46.4 °F 93% 29.91 in 10.0 mi SSE 16.1 mph 24.2 mph 0.00 in Rain Light Rain
3:20 AM 48.2 °F - 46.4 °F 93% 29.89 in 10.0 mi SE 17.3 mph 27.6 mph 0.01 in Rain Light Rain
3:56 AM 48.9 °F - 46.9 °F 93% 29.94 in 10.0 mi South 11.5 mph 21.9 mph 0.03 in Rain Light Rain
4:13 AM 48.2 °F - 46.4 °F 93% 29.92 in 9.0 mi South 15.0 mph 18.4 mph 0.03 in Rain Rain
4:56 AM 48.9 °F - 48.0 °F 97% 29.93 in 6.0 mi South 11.5 mph 18.4 mph 0.32 in Rain , Thunderstorm Rain
5:15 AM 50.0 °F - 48.2 °F 94% 29.88 in 7.0 mi South 12.7 mph 19.6 mph 0.05 in Rain Rain
5:56 AM 50.0 °F - 48.9 °F 96% 29.89 in 10.0 mi Variable 6.9 mph - 0.11 in Rain Light Rain
6:46 AM 50.0 °F - 48.2 °F 94% 29.86 in 7.0 mi SSE 10.4 mph 17.3 mph 0.11 in Rain Light Rain
6:56 AM 50.0 °F - 48.9 °F 96% 29.88 in 6.0 mi SSE 11.5 mph - 0.12 in Rain Light Rain
7:21 AM 50.0 °F - 48.2 °F 94% 29.84 in 6.0 mi SSE 9.2 mph - 0.02 in Rain Light Rain
7:35 AM 48.2 °F - 48.2 °F 100% 29.83 in 6.0 mi SE 9.2 mph - 0.03 in Rain Light Rain
7:56 AM 50.0 °F - 48.9 °F 96% 29.83 in 10.0 mi SE 10.4 mph - 0.03 in Rain Light Rain
8:08 AM 50.0 °F - 48.2 °F 94% 29.80 in 7.0 mi SSE 11.5 mph - 0.01 in Rain Light Rain
8:56 AM 50.0 °F - 50.0 °F 100% 29.80 in 5.0 mi South 11.5 mph 17.3 mph 0.01 in Rain Light Rain
9:56 AM 51.1 °F - 51.1 °F 100% 29.78 in 3.0 mi South 10.4 mph - 0.00 in   Overcast
10:08 AM 51.8 °F - 51.8 °F 100% 29.75 in 2.5 mi South 10.4 mph 19.6 mph 0.00 in Rain Light Rain
10:56 AM 54.0 °F - 53.1 °F 97% 29.78 in 3.0 mi SSW 12.7 mph - 0.00 in Rain Light Rain
11:53 AM 55.4 °F - 53.6 °F 94% 29.75 in 8.0 mi WSW 17.3 mph 27.6 mph 0.00 in   Overcast
11:56 AM 55.0 °F - 54.0 °F 96% 29.77 in 9.0 mi WSW 13.8 mph 24.2 mph 0.00 in   Overcast
12:16 PM 57.2 °F - 53.6 °F 88% 29.75 in 10.0 mi WSW 20.7 mph 28.8 mph N/A   Overcast
12:56 PM 60.1 °F - 53.1 °F 78% 29.76 in 10.0 mi West 15.0 mph 29.9 mph N/A   Overcast
1:37 PM 55.4 °F - 46.4 °F 72% 29.75 in 10.0 mi West 28.8 mph 40.3 mph N/A   Overcast
1:46 PM 55.4 °F - 46.4 °F 72% 29.75 in 10.0 mi West 24.2 mph 34.5 mph N/A   Overcast
1:56 PM 55.9 °F - 46.9 °F 72% 29.77 in 10.0 mi West 23.0 mph 34.5 mph N/A   Overcast
2:56 PM 54.0 °F - 44.1 °F 69% 29.80 in 10.0 mi West 25.3 mph 35.7 mph N/A   Overcast
3:20 PM 55.4 °F - 44.6 °F 67% 29.78 in 10.0 mi West 27.6 mph 38.0 mph N/A   Mostly Cloudy
3:56 PM 54.0 °F - 43.0 °F 66% 29.82 in 10.0 mi West 28.8 mph 38.0 mph N/A   Overcast
4:56 PM 55.9 °F - 44.1 °F 64% 29.84 in 10.0 mi WNW 26.5 mph 36.8 mph N/A   Overcast
5:56 PM 55.9 °F - 44.1 °F 64% 29.87 in 10.0 mi WNW 21.9 mph 34.5 mph N/A   Mostly Cloudy
6:56 PM 54.0 °F - 42.1 °F 64% 29.89 in 10.0 mi West 19.6 mph 28.8 mph N/A   Partly Cloudy
7:56 PM 51.1 °F - 43.0 °F 74% 29.93 in 10.0 mi West 10.4 mph - N/A   Clear
8:56 PM 48.0 °F - 43.0 °F 83% 29.94 in 10.0 mi West 9.2 mph - N/A   Clear
9:56 PM 48.0 °F - 43.0 °F 83% 29.95 in 10.0 mi SW 8.1 mph - N/A   Clear
10:56 PM 46.9 °F - 42.1 °F 83% 29.97 in 10.0 mi WSW 6.9 mph - N/A   Clear
11:56 PM 46.0 °F 41.9 °F 41.0 °F 83% 29.99 in 10.0 mi SW 8.1 mph - N/A   Clear